Location: Monrovia
(34.7865°N, 86.7139°W)
Time: 21:45:26
(UTC+00:00)

COSMOS 2406 - Pass Details

Date: 14 July 2020
Orbit: 844 x 863 km, 71.0° (Epoch: 08 August)

Event Time Altitude Azimuth Distance (km) Brightness Sun altitude
Exits shadow 07:37:51 51° 300° (WNW) 1,075 3.6 -28.4°
Drops below altitude 10° 07:43:20 10° 10° (N) 2,505 6.5 -27.8°
Sets 07:45:52 0° 16° (NNE) 3,444 7.6 -27.6°
